Regional Weather Roundup
Issued by NWS Newport/Morehead, NC

Current Version | Previous Version | Graphics & Text | Print | Product List | Glossary On
Versions: 1 2 3 4 5 6 7 8 9 10 11 12 13 14 15 16 17 18 19 20 21 22 23 24 25 26 27 28 29 30 31 32 33 34 35 36 37 38 39 40 41 42 43 44 45 46 47 48 49 50
000 ASUS42 KMHX 280013 RWRMHX WEATHER ROUNDUP FOR EASTERN NORTH CAROLINA NATIONAL WEATHER SERVICE NEWPORT/MOREHEAD CITY NC 800 PM EDT WED APR 27 2016 NOTE: "FAIR" INDICATES FEW OR NO CLOUDS BELOW 12,000 FEET WITH NO SIGNIFICANT WEATHER AND/OR OBSTRUCTIONS TO VISIBILITY NCZ015>017-031-032-045>047-102-103-280100- NORTH COAST CITY SKY/WX TMP DP RH WIND PRES REMARKS EDENTON PTCLDY 67 60 79 E6G17 29.83S ELIZABETH CITY CLOUDY 60 57 89 NE13 29.86R KITTY HAWK PTCLDY 60 56 89 N5 29.83R MANTEO NOT AVBL $$ NCZ045>047-081-094-103-104-280100- CENTRAL COAST CITY SKY/WX TMP DP RH WIND PRES REMARKS FRISCO CLEAR 70 66 87 SW13 29.86R SWANQUARTER NOT AVBL $$ NCZ095-097-098-100-101-280100- SOUTHERN COAST CITY SKY/WX TMP DP RH WIND PRES REMARKS BEAUFORT CLEAR 70 67 90 SW14 29.88R CEDAR ISLAND NOT AVBL JACKSONVILLE PTCLDY 72 61 68 SW10 29.85R PINEY ISLAND CLEAR N/A N/A N/A SW18G29 29.86R WILMINGTON CLEAR 73 60 63 SW16G24 29.87R $$ NCZ011>013-027>030-043-044-078>080-089-090>093-098-280100- COASTAL PLAIN CITY SKY/WX TMP DP RH WIND PRES REMARKS AHOSKIE LGT RAIN 65 63 92 N7 29.82R CLINTON CLEAR 80 67 64 S6 29.83R ELIZABETHTOWN CLEAR 77 62 58 S8 29.84R GOLDSBORO CLEAR 82 61 47 SW7 29.80R GREENVILLE CLEAR 79 61 53 SW3 29.83R HAVELOCK CLEAR 72 60 66 SW13G23 29.87R KENANSVILLE CLEAR 78 62 58 SW3 29.84R KINSTON CLEAR 81 64 57 S12 29.82R NEW BERN CLEAR 74 60 61 S9 29.85R RICHLANDS CLEAR 75 60 59 S14 29.85R ROCKY MOUNT MOCLDY 79 60 52 S6 29.80R WASHINGTON CLEAR 78 65 63 S7 29.81R WHITEVILLE CLEAR 76 63 63 S7 29.84S $$ AMZ130-135-150-152-154-156-158-170-250-252-270-ANZ085-086-088-633-658-670-280100- MARINE OBSERVATIONS STATION/POSITION TIME TEMP WIND PRES WAVE SWELL AIR SEA DIR/SP/G HT/PER HT/PER (UTC) (F) (DEG/KT/KT) (MB) (FT/S) (FT/S) CHESAPEAKE LIGHT 0000 52 60/ 16/ 17 1012.6 64 E VA BEACH 2350 54 54 40/ 12/ 14 1011.1 4/ 7 3/ 7 DUCK 2300 57 61 1010.2 2 E DUCK 2311 58 N/A 3/ 6 OREGON INLET 2300 70 71 1010.0 13E OREGON INLT 0000 60 N/A 5/ 6 2/11 HATTERAS CG 2300 71 67 1010.4 DIAMOND BUOY 2350 73 71 210/ 17/ 21 1011.1 4/ 5 2/12 CAPE LOOKOUT 0000 69 210/ 9/ 11 1011.4 BEAUFORT LAB 2300 70 68 1010.0 30 SE NEW RVR IN 2325 67 N/A 4/ 5 27 SE WRIGHTSVLE 2308 72 69 200/ 14/ 17 1014.7 5 SE WRIGHTSVLE 2308 70 66 220/ 14/ 19 1011.8 225 S CAPE HAT 2350 71 71 180/ 10/ 12 1015.7 2/ 9 2/ 9 41 SE CHARLESTON 2350 74 74 190/ 12/ 14 1012.1 2/ 5 2/ 7 $$

USA.gov is the U.S. government's official web portal to all federal, state and local government web resources and services.